Weather History for Aurora, IL

Change the Weather History Date:

Friday, February 15, 2013

  Actual Average Record
Temperature  
Mean Temperature 26 °F 25 °F  
Max Temperature 32 °F 33 °F 55 °F (1999)
Min Temperature 19 °F 16 °F -9 °F (2007)
Degree Days  
Heating Degree Days 39 40  
Month to date heating degree days 619 634  
Since 1 July heating degree days 4306 4651  
Cooling Degree Days 0 0  
Month to date cooling degree days 0 0  
Year to date cooling degree days 0 0  
Moisture  
Dew Point 18 °F    
Average Humidity 69    
Maximum Humidity 85    
Minimum Humidity 53    
Precipitation  
Precipitation T in 0.06 in 0.15 in (2012)
Month to date precipitation 1.36 0.74  
Year to date precipitation 4.50 2.21  
Sea Level Pressure  
Sea Level Pressure 30.14 in    
Wind  
Wind Speed 14 mph (NW)    
Max Wind Speed 22 mph    
Max Gust Speed 28 mph    
Visibility 10 miles    
Events Snow    
T = Trace of Precipitation, MM = Missing Value Source: NWS Daily Summary

Daily Weather History Graph

Daily Weather History Graph

Search for Another Location

Airport:

Trip Planner

Search our weather history database for the weather conditions in past years. The results will help you decide how hot, cold, wet, or windy it might be!

Date:

Astronomy

Feb. 15, 2013 Rise Set
Actual Time 6:49 AM CST 5:27 PM CST
Civil Twilight 6:20 AM CST 5:56 PM CST
Nautical Twilight 5:48 AM CST 6:28 PM CST
Astronomical Twilight 5:15 AM CST 7:00 PM CST
Moon 9:19 AM CST (2/15) 11:34 PM CST (2/15)
Length of Visible Light 11h 35m
Length of Day
10h 38m
Waxing Crescent, 30% of the Moon is Illuminated
Feb 15
Waxing Crescent
Feb 17
First Quarter
Feb 25
Full
Mar 4
Last Quarter
Mar 11
New

Hourly Weather History & Observations

Time (CST) Temp. Windchill Dew Point Humidity Pressure Visibility Wind Dir Wind Speed Gust Speed Precip Events Conditions
12:07 AM 32.0 °F 28.7 °F 28.4 °F 87% 29.98 in 10.0 mi NW 3.5 mph - N/A   Overcast
12:20 AM 30.2 °F 25.4 °F 28.4 °F 93% 29.98 in 10.0 mi WNW 4.6 mph - N/A   Overcast
12:52 AM 32.0 °F 26.4 °F 27.0 °F 82% 30.01 in 10.0 mi NW 5.8 mph - N/A   Overcast
1:52 AM 32.0 °F 24.8 °F 27.0 °F 82% 30.02 in 10.0 mi NW 8.1 mph - N/A   Overcast
2:52 AM 30.9 °F 20.2 °F 26.1 °F 82% 30.04 in 10.0 mi NNW 15.0 mph - N/A   Overcast
3:05 AM 30.2 °F 20.2 °F 24.8 °F 80% 30.02 in 10.0 mi NNW 12.7 mph - N/A   Overcast
3:52 AM 28.9 °F 18.2 °F 24.1 °F 82% 30.05 in 9.0 mi NNW 13.8 mph - 0.00 in   Overcast
4:52 AM 28.0 °F 15.3 °F 23.0 °F 81% 30.09 in 10.0 mi NNW 18.4 mph - N/A   Overcast
5:28 AM 26.6 °F 13.1 °F 19.4 °F 74% 30.08 in 10.0 mi NNW 19.6 mph - 0.00 in   Overcast
5:52 AM 26.1 °F 12.7 °F 18.0 °F 71% 30.11 in 10.0 mi North 18.4 mph - 0.00 in   Overcast
6:52 AM 24.1 °F 12.0 °F 19.0 °F 81% 30.14 in 10.0 mi NNW 13.8 mph - N/A   Partly Cloudy
7:17 AM 23.0 °F 10.1 °F 15.8 °F 74% 30.13 in 10.0 mi NNW 15.0 mph - N/A   Mostly Cloudy
7:52 AM 21.9 °F 8.7 °F 12.9 °F 68% 30.18 in 10.0 mi NNW 15.0 mph - N/A   Scattered Clouds
8:52 AM 23.0 °F 9.2 °F 12.9 °F 65% 30.20 in 10.0 mi NNW 17.3 mph - N/A   Clear
9:52 AM 24.1 °F 12.5 °F 12.9 °F 62% 30.21 in 10.0 mi NNW 12.7 mph - N/A   Clear
10:52 AM 26.1 °F 15.0 °F 14.0 °F 60% 30.21 in 10.0 mi NNW 12.7 mph - N/A   Clear
11:52 AM 28.0 °F 20.0 °F 15.1 °F 58% 30.21 in 10.0 mi NW 8.1 mph 17.3 mph N/A   Clear
12:52 PM 28.9 °F 19.8 °F 16.0 °F 58% 30.19 in 10.0 mi WNW 10.4 mph - N/A   Clear
1:52 PM 28.9 °F 18.2 °F 16.0 °F 58% 30.19 in 10.0 mi NW 13.8 mph - N/A   Scattered Clouds
2:52 PM 30.0 °F 20.0 °F 15.1 °F 54% 30.18 in 10.0 mi West 12.7 mph - N/A   Partly Cloudy
3:52 PM 28.9 °F 19.8 °F 16.0 °F 58% 30.19 in 10.0 mi NW 10.4 mph - N/A   Mostly Cloudy
4:52 PM 28.0 °F 20.0 °F 16.0 °F 61% 30.19 in 10.0 mi WNW 8.1 mph - N/A   Overcast
5:52 PM 28.0 °F 16.1 °F 15.1 °F 58% 30.19 in 10.0 mi WNW 16.1 mph - N/A   Overcast
6:40 PM 26.6 °F 15.2 °F 17.6 °F 69% 30.17 in 8.0 mi NW 13.8 mph - 0.00 in Snow Light Snow
7:52 PM 26.1 °F 14.0 °F 16.0 °F 66% 30.21 in 10.0 mi NW 15.0 mph 23.0 mph 0.00 in   Overcast
8:52 PM 23.0 °F 8.7 °F 12.9 °F 65% 30.21 in 10.0 mi NW 18.4 mph - N/A   Mostly Cloudy
9:52 PM 21.9 °F 7.8 °F 12.0 °F 66% 30.21 in 10.0 mi NW 17.3 mph 21.9 mph N/A   Clear
10:52 PM 21.0 °F 8.1 °F 10.9 °F 65% 30.21 in 10.0 mi NW 13.8 mph - N/A   Clear
11:52 PM 19.0 °F 4.5 °F 10.0 °F 68% 30.21 in 10.0 mi NW 16.1 mph - N/A   Clear